Starlink 33600

operational
NORAD ID: 62772 Int'l Des: 2025-015 Owner: SPXS Country: US Constellation: starlink
LEOCIRCULAR

Über Starlink 33600

Beschreibung wird geladen...

Live-Position

3D-Globus wird geladen...

Nächste Überflüge

Höhenverlauf

Altitude vs Time

uPlot chart will show altitude changes over time

Zweizeiliger Elementsatz

1 62772U 25015Q 26036.19848347 .00025251 00000-0 86136-3 0 9990
2 62772 53.1601 113.5811 0001781 86.7370 273.3834 15.30214877 59507
Epoch: 5. Feb. 2026 • Age: 5 hours

Aktueller Status

Höhe 478.5 km
Geschwindigkeit 7.63 km/s
Subsatellitenpunkt 43.56°N, 37.98°W
Startdatum 21. Jan. 2025
Alter 1 years
Typ internet

Technische Details

Klassifizierung Payload
Masse 575.00 kg
Trockenmasse 530.00 kg
Gesamtmasse 575.00 kg
Länge 0.30 m
Durchmesser 4.10 m
Spannweite 29.00 m
Form Box + pan
Hersteller SPXS
Bus-Typ Starlink V2MO
Phasenstatus In Orbit
Besitzer/Staat SPXS/US

Große Konstellationen

Loading constellations...